Location: Azul
(36.7830°S, 59.8500°W)
Time: 07:12:42
(UTC-03:00)

Oscar 19 - Visible Passes

Search period start: 29 November 2022 00:00
Search period end: 09 December 2022 00:00
Orbit: 772 x 790 km, 98.8° (Epoch: 28 November)

Date Brightness Start Highest point End Pass type
(mag) Time Alt. Az. Time Alt. Az. Time Alt. Az.
29 Nov 12.1 03:18:07 10° NE 03:22:52 37° ESE 03:27:40 10° S visible
29 Nov 11.8 04:57:58 10° NNW 05:02:10 24° W 05:06:24 10° SW visible
30 Nov 13.2 02:47:32 10° ENE 02:51:07 19° ESE 02:54:42 10° SSE visible
30 Nov 10.9 04:24:53 10° N 04:29:56 50° W 04:35:04 10° SSW visible
01 Dec 10.8 03:52:38 10° NNE 03:57:51 79° ESE 04:03:08 10° S visible
02 Dec 12.0 03:21:07 10° NE 03:25:56 39° ESE 03:30:47 10° S visible
02 Dec 11.8 05:01:11 10° NNW 05:05:16 23° W 05:09:23 10° SW visible
03 Dec 13.1 02:50:27 10° ENE 02:54:10 20° ESE 02:57:53 10° SSE visible
03 Dec 11.0 04:28:00 10° N 04:33:01 47° W 04:38:06 10° SSW visible
04 Dec 10.7 03:55:42 10° NNE 04:00:56 84° ESE 04:06:14 10° SSW visible
05 Dec 11.9 03:24:07 10° NE 03:28:59 41° ESE 03:33:54 10° S visible
06 Dec 13.0 02:53:22 10° ENE 02:57:12 21° ESE 03:01:04 10° SSE visible
06 Dec 11.0 04:31:08 10° N 04:36:06 44° W 04:41:09 10° SSW visible
07 Dec 13.7 02:24:42 10° ESE 02:25:34 10° ESE 02:26:27 10° SE visible
07 Dec 10.7 03:58:46 10° NNE 04:04:00 89° ESE 04:09:17 10° SSW visible
08 Dec 11.8 03:27:07 10° NE 03:32:03 43° ESE 03:37:01 10° S visible
